Year,Month,Day,Hour,Minute,Value (Times are PST for temperature in C)
2008,09,17,00,00,17.40
2008,09,17,00,01,17.40
2008,09,17,00,02,17.40
2008,09,17,00,03,17.30
2008,09,17,00,04,17.30
2008,09,17,00,05,17.30
2008,09,17,00,06,17.20
2008,09,17,00,07,17.20
2008,09,17,00,08,17.00
2008,09,17,00,09,16.90
2008,09,17,00,10,16.90
2008,09,17,00,11,16.80
2008,09,17,00,12,16.70
2008,09,17,00,13,16.70
2008,09,17,00,14,16.70
2008,09,17,00,15,16.60
2008,09,17,00,16,16.60
2008,09,17,00,17,16.60
2008,09,17,00,18,16.50
2008,09,17,00,19,16.40
2008,09,17,00,20,16.40
2008,09,17,00,21,16.40
2008,09,17,00,22,16.40
2008,09,17,00,23,16.40
2008,09,17,00,24,16.40
2008,09,17,00,25,16.30
2008,09,17,00,26,16.30
2008,09,17,00,27,16.30
2008,09,17,00,28,16.30
2008,09,17,00,29,16.20
2008,09,17,00,30,16.20
2008,09,17,00,31,16.10
2008,09,17,00,32,16.10
2008,09,17,00,33,16.10
2008,09,17,00,34,16.10
2008,09,17,00,35,16.10
2008,09,17,00,36,16.10
2008,09,17,00,37,16.10
2008,09,17,00,38,16.00
2008,09,17,00,39,15.90
2008,09,17,00,40,15.90
2008,09,17,00,41,15.90
2008,09,17,00,42,15.90
2008,09,17,00,43,15.90
2008,09,17,00,44,15.90
2008,09,17,00,45,15.90
2008,09,17,00,46,15.90
2008,09,17,00,47,15.90
2008,09,17,00,48,15.80
2008,09,17,00,49,15.80
2008,09,17,00,50,15.80
2008,09,17,00,51,15.80
2008,09,17,00,52,15.90
2008,09,17,00,53,15.90
2008,09,17,00,54,15.90
2008,09,17,00,55,15.90
2008,09,17,00,56,15.90
2008,09,17,00,57,15.90
2008,09,17,00,58,15.90
2008,09,17,00,59,15.90
2008,09,17,01,00,15.90
2008,09,17,01,01,15.90
2008,09,17,01,02,15.90
2008,09,17,01,03,15.90
2008,09,17,01,04,15.90
2008,09,17,01,05,15.90
2008,09,17,01,06,15.80
2008,09,17,01,07,15.80
2008,09,17,01,08,15.80
2008,09,17,01,09,15.80
2008,09,17,01,10,15.80
2008,09,17,01,11,15.80
2008,09,17,01,12,15.80
2008,09,17,01,13,15.80
2008,09,17,01,14,15.80
2008,09,17,01,15,15.80
2008,09,17,01,16,15.80
2008,09,17,01,17,15.80
2008,09,17,01,18,15.80
2008,09,17,01,19,15.80
2008,09,17,01,20,15.90
2008,09,17,01,21,15.90
2008,09,17,01,22,15.90
2008,09,17,01,23,16.10
2008,09,17,01,24,16.10
2008,09,17,01,25,16.10
2008,09,17,01,26,16.10
2008,09,17,01,27,16.10
2008,09,17,01,28,16.10
2008,09,17,01,29,16.10
2008,09,17,01,30,16.10
2008,09,17,01,31,16.10
2008,09,17,01,32,16.10
2008,09,17,01,33,16.10
2008,09,17,01,34,16.10
2008,09,17,01,35,16.10
2008,09,17,01,36,16.10
2008,09,17,01,37,16.10
2008,09,17,01,38,16.00
2008,09,17,01,39,15.90
2008,09,17,01,40,15.90
2008,09,17,01,41,15.90
2008,09,17,01,42,15.90
2008,09,17,01,43,15.80
2008,09,17,01,44,15.80
2008,09,17,01,45,15.70
2008,09,17,01,46,15.60
2008,09,17,01,47,15.50
2008,09,17,01,48,15.40
2008,09,17,01,49,15.30
2008,09,17,01,50,15.30
2008,09,17,01,51,15.20
2008,09,17,01,52,15.10
2008,09,17,01,53,15.00
2008,09,17,01,54,15.00
2008,09,17,01,55,14.90
2008,09,17,01,56,14.80
2008,09,17,01,57,14.80
2008,09,17,01,58,14.70
2008,09,17,01,59,14.60
2008,09,17,02,00,14.60
2008,09,17,02,01,14.50
2008,09,17,02,02,14.40
2008,09,17,02,03,14.40
2008,09,17,02,04,14.30
2008,09,17,02,05,14.30
2008,09,17,02,06,14.30
2008,09,17,02,07,14.30
2008,09,17,02,08,14.30
2008,09,17,02,09,14.30
2008,09,17,02,10,14.30
2008,09,17,02,11,14.40
2008,09,17,02,12,14.40
2008,09,17,02,13,14.40
2008,09,17,02,14,14.40
2008,09,17,02,15,14.40
2008,09,17,02,16,14.40
2008,09,17,02,17,14.40
2008,09,17,02,18,14.40
2008,09,17,02,19,14.40
2008,09,17,02,20,14.40
2008,09,17,02,21,14.40
2008,09,17,02,22,14.40
2008,09,17,02,23,14.40
2008,09,17,02,24,14.40
2008,09,17,02,25,14.40
2008,09,17,02,26,14.40
2008,09,17,02,27,14.30
2008,09,17,02,28,14.30
2008,09,17,02,29,14.30
2008,09,17,02,30,14.30
2008,09,17,02,31,14.20
2008,09,17,02,32,14.20
2008,09,17,02,33,14.20
2008,09,17,02,34,14.30
2008,09,17,02,35,14.30
2008,09,17,02,36,14.30
2008,09,17,02,37,14.30
2008,09,17,02,38,14.30
2008,09,17,02,39,14.20
2008,09,17,02,40,14.20
2008,09,17,02,41,14.20
2008,09,17,02,42,14.20
2008,09,17,02,43,14.20
2008,09,17,02,44,14.20
2008,09,17,02,45,14.10
2008,09,17,02,46,14.10
2008,09,17,02,47,14.00
2008,09,17,02,48,14.00
2008,09,17,02,49,13.90
2008,09,17,02,50,13.90
2008,09,17,02,51,13.90
2008,09,17,02,52,13.90
2008,09,17,02,53,13.90
2008,09,17,02,54,13.90
2008,09,17,02,55,13.90
2008,09,17,02,56,13.90
2008,09,17,02,57,14.00
2008,09,17,02,58,14.00
2008,09,17,02,59,14.00
2008,09,17,03,00,14.10
2008,09,17,03,01,14.00
2008,09,17,03,02,14.00
2008,09,17,03,03,14.00
2008,09,17,03,04,14.00
2008,09,17,03,05,14.00
2008,09,17,03,06,13.90
2008,09,17,03,07,13.90
2008,09,17,03,08,13.90
2008,09,17,03,09,13.90
2008,09,17,03,10,13.90
2008,09,17,03,11,13.80
2008,09,17,03,12,13.80
2008,09,17,03,13,13.80
2008,09,17,03,14,13.80
2008,09,17,03,15,13.80
2008,09,17,03,16,13.80
2008,09,17,03,17,13.90
2008,09,17,03,18,13.90
2008,09,17,03,19,13.90
2008,09,17,03,20,13.90
2008,09,17,03,21,13.90
2008,09,17,03,22,13.90
2008,09,17,03,23,13.90
2008,09,17,03,24,13.90
2008,09,17,03,25,13.90
2008,09,17,03,26,13.90
2008,09,17,03,27,14.00
2008,09,17,03,28,14.00
2008,09,17,03,29,14.00
2008,09,17,03,30,14.00
2008,09,17,03,31,14.10
2008,09,17,03,32,14.10
2008,09,17,03,33,14.20
2008,09,17,03,34,14.20
2008,09,17,03,35,14.20
2008,09,17,03,36,14.20
2008,09,17,03,37,14.20
2008,09,17,03,38,14.20
2008,09,17,03,39,14.20
2008,09,17,03,40,14.20
2008,09,17,03,41,14.20
2008,09,17,03,42,14.20
2008,09,17,03,43,14.20
2008,09,17,03,44,14.20
2008,09,17,03,45,14.20
2008,09,17,03,46,14.20
2008,09,17,03,47,14.20
2008,09,17,03,48,14.20
2008,09,17,03,49,14.20
2008,09,17,03,50,14.20
2008,09,17,03,51,14.20
2008,09,17,03,52,14.20
2008,09,17,03,53,14.20
2008,09,17,03,54,14.20
2008,09,17,03,55,14.20
2008,09,17,03,56,14.30
2008,09,17,03,57,14.30
2008,09,17,03,58,14.30
2008,09,17,03,59,14.30
2008,09,17,04,00,14.30
2008,09,17,04,01,14.30
2008,09,17,04,02,14.40
2008,09,17,04,03,14.40
2008,09,17,04,04,14.40
2008,09,17,04,05,14.40
2008,09,17,04,06,14.40
2008,09,17,04,07,14.40
2008,09,17,04,08,14.50
2008,09,17,04,09,14.60
2008,09,17,04,10,14.60
2008,09,17,04,11,14.60
2008,09,17,04,12,14.70
2008,09,17,04,13,14.80
2008,09,17,04,14,14.80
2008,09,17,04,15,14.80
2008,09,17,04,16,14.80
2008,09,17,04,17,14.80
2008,09,17,04,18,14.70
2008,09,17,04,19,14.70
2008,09,17,04,20,14.60
2008,09,17,04,21,14.60
2008,09,17,04,22,14.60
2008,09,17,04,23,14.60
2008,09,17,04,24,14.60
2008,09,17,04,25,14.60
2008,09,17,04,26,14.60
2008,09,17,04,27,14.50
2008,09,17,04,28,14.50
2008,09,17,04,29,14.50
2008,09,17,04,30,14.50
2008,09,17,04,31,14.50
2008,09,17,04,32,14.50
2008,09,17,04,33,14.50
2008,09,17,04,34,14.50
2008,09,17,04,35,14.50
2008,09,17,04,36,14.40
2008,09,17,04,37,14.40
2008,09,17,04,38,14.40
2008,09,17,04,39,14.40
2008,09,17,04,40,14.40
2008,09,17,04,41,14.40
2008,09,17,04,42,14.40
2008,09,17,04,43,14.40
2008,09,17,04,44,14.40
2008,09,17,04,45,14.40
2008,09,17,04,46,14.30
2008,09,17,04,47,14.30
2008,09,17,04,48,14.30
2008,09,17,04,49,14.30
2008,09,17,04,50,14.30
2008,09,17,04,51,14.30
2008,09,17,04,52,14.30
2008,09,17,04,53,14.30
2008,09,17,04,54,14.30
2008,09,17,04,55,14.30
2008,09,17,04,56,14.30
2008,09,17,04,57,14.30
2008,09,17,04,58,14.30
2008,09,17,04,59,14.30
2008,09,17,05,00,14.30
2008,09,17,05,01,14.30
2008,09,17,05,02,14.30
2008,09,17,05,03,14.20
2008,09,17,05,04,14.20
2008,09,17,05,05,14.20
2008,09,17,05,06,14.20
2008,09,17,05,07,14.20
2008,09,17,05,08,14.30
2008,09,17,05,09,14.20
2008,09,17,05,10,14.20
2008,09,17,05,11,14.30
2008,09,17,05,12,14.30
2008,09,17,05,13,14.50
2008,09,17,05,14,14.60
2008,09,17,05,15,14.70
2008,09,17,05,16,14.80
2008,09,17,05,17,14.80
2008,09,17,05,18,14.90
2008,09,17,05,19,15.00
2008,09,17,05,20,15.00
2008,09,17,05,21,14.90
2008,09,17,05,22,14.80
2008,09,17,05,23,14.60
2008,09,17,05,24,14.50
2008,09,17,05,25,14.30
2008,09,17,05,26,14.20
2008,09,17,05,27,14.10
2008,09,17,05,28,14.00
2008,09,17,05,29,13.90
2008,09,17,05,30,13.90
2008,09,17,05,31,13.90
2008,09,17,05,32,13.90
2008,09,17,05,33,13.80
2008,09,17,05,34,13.70
2008,09,17,05,35,13.70
2008,09,17,05,36,13.70
2008,09,17,05,37,13.70
2008,09,17,05,38,13.70
2008,09,17,05,39,13.70
2008,09,17,05,40,13.80
2008,09,17,05,41,13.80
2008,09,17,05,42,13.70
2008,09,17,05,43,13.70
2008,09,17,05,44,13.70
2008,09,17,05,45,13.70
2008,09,17,05,46,13.50
2008,09,17,05,47,13.40
2008,09,17,05,48,13.30
2008,09,17,05,49,13.20
2008,09,17,05,50,13.10
2008,09,17,05,51,13.00
2008,09,17,05,52,12.90
2008,09,17,05,53,12.90
2008,09,17,05,54,12.80
2008,09,17,05,55,12.90
2008,09,17,05,56,12.90
2008,09,17,05,57,12.90
2008,09,17,05,58,12.90
2008,09,17,05,59,12.90
2008,09,17,06,00,12.90
2008,09,17,06,01,12.90
2008,09,17,06,02,12.90
2008,09,17,06,03,12.80
2008,09,17,06,04,12.90
2008,09,17,06,05,12.90
2008,09,17,06,06,13.00
2008,09,17,06,07,13.00
2008,09,17,06,08,13.10
2008,09,17,06,09,13.10
2008,09,17,06,10,13.10
2008,09,17,06,11,13.10
2008,09,17,06,12,13.10
2008,09,17,06,13,13.10
2008,09,17,06,14,13.10
2008,09,17,06,15,13.00
2008,09,17,06,16,13.00
2008,09,17,06,17,12.90
2008,09,17,06,18,12.90
2008,09,17,06,19,12.90
2008,09,17,06,20,12.80
2008,09,17,06,21,12.80
2008,09,17,06,22,12.80
2008,09,17,06,23,12.80
2008,09,17,06,24,12.80
2008,09,17,06,25,12.70
2008,09,17,06,26,12.70
2008,09,17,06,27,12.70
2008,09,17,06,28,12.70
2008,09,17,06,29,12.70
2008,09,17,06,30,12.60
2008,09,17,06,31,12.60
2008,09,17,06,32,12.60
2008,09,17,06,33,12.50
2008,09,17,06,34,12.40
2008,09,17,06,35,12.40
2008,09,17,06,36,12.30
2008,09,17,06,37,12.30
2008,09,17,06,38,12.30
2008,09,17,06,39,12.30
2008,09,17,06,40,12.30
2008,09,17,06,41,12.20
2008,09,17,06,42,12.20
2008,09,17,06,43,12.20
2008,09,17,06,44,12.20
2008,09,17,06,45,12.20
2008,09,17,06,46,12.20
2008,09,17,06,47,12.30
2008,09,17,06,48,12.30
2008,09,17,06,49,12.30
2008,09,17,06,50,12.30
2008,09,17,06,51,12.30
2008,09,17,06,52,12.30
2008,09,17,06,53,12.40
2008,09,17,06,54,12.40
2008,09,17,06,55,12.30
2008,09,17,06,56,12.40
2008,09,17,06,57,12.40
2008,09,17,06,58,12.40
2008,09,17,06,59,12.40
2008,09,17,07,00,12.40
2008,09,17,07,01,12.30
2008,09,17,07,02,12.30
2008,09,17,07,03,12.30
2008,09,17,07,04,12.30
2008,09,17,07,05,12.30
2008,09,17,07,06,12.30
2008,09,17,07,07,12.30
2008,09,17,07,08,12.30
2008,09,17,07,09,12.30
2008,09,17,07,10,12.30
2008,09,17,07,11,12.40
2008,09,17,07,12,12.40
2008,09,17,07,13,12.50
2008,09,17,07,14,12.50
2008,09,17,07,15,12.60
2008,09,17,07,16,12.70
2008,09,17,07,17,12.80
2008,09,17,07,18,12.90
2008,09,17,07,19,13.00
2008,09,17,07,20,13.10
2008,09,17,07,21,13.20
2008,09,17,07,22,13.20
2008,09,17,07,23,13.30
2008,09,17,07,24,13.30
2008,09,17,07,25,13.30
2008,09,17,07,26,13.30
2008,09,17,07,27,13.30
2008,09,17,07,28,13.30
2008,09,17,07,29,13.30
2008,09,17,07,30,13.30
2008,09,17,07,31,13.30
2008,09,17,07,32,13.20
2008,09,17,07,33,13.20
2008,09,17,07,34,13.20
2008,09,17,07,35,13.10
2008,09,17,07,36,13.00
2008,09,17,07,37,13.00
2008,09,17,07,38,13.00
2008,09,17,07,39,13.00
2008,09,17,07,40,13.00
2008,09,17,07,41,13.10
2008,09,17,07,42,13.10
2008,09,17,07,43,13.10
2008,09,17,07,44,13.20
2008,09,17,07,45,13.20
2008,09,17,07,46,13.20
2008,09,17,07,47,13.30
2008,09,17,07,48,13.30
2008,09,17,07,49,13.30
2008,09,17,07,50,13.30
2008,09,17,07,51,13.30
2008,09,17,07,52,13.30
2008,09,17,07,53,13.40
2008,09,17,07,54,13.50
2008,09,17,07,55,13.50
2008,09,17,07,56,13.60
2008,09,17,07,57,13.70
2008,09,17,07,58,13.70
2008,09,17,07,59,13.80
2008,09,17,08,00,13.90
2008,09,17,08,01,13.90
2008,09,17,08,02,14.00
2008,09,17,08,03,14.10
2008,09,17,08,04,14.10
2008,09,17,08,05,14.10
2008,09,17,08,06,14.00
2008,09,17,08,07,13.90
2008,09,17,08,08,13.80
2008,09,17,08,09,13.70
2008,09,17,08,10,13.70
2008,09,17,08,11,13.70
2008,09,17,08,12,13.80
2008,09,17,08,13,13.80
2008,09,17,08,14,13.90
2008,09,17,08,15,13.90
2008,09,17,08,16,14.10
2008,09,17,08,17,14.10
2008,09,17,08,18,14.20
2008,09,17,08,19,14.20
2008,09,17,08,20,14.20
2008,09,17,08,21,14.20
2008,09,17,08,22,14.30
2008,09,17,08,23,14.40
2008,09,17,08,24,14.50
2008,09,17,08,25,14.50
2008,09,17,08,26,14.60
2008,09,17,08,27,14.60
2008,09,17,08,28,14.70
2008,09,17,08,29,14.70
2008,09,17,08,30,14.80
2008,09,17,08,31,14.80
2008,09,17,08,32,14.80
2008,09,17,08,33,14.90
2008,09,17,08,34,14.90
2008,09,17,08,35,15.00
2008,09,17,08,36,15.10
2008,09,17,08,37,15.10
2008,09,17,08,38,15.20
2008,09,17,08,39,15.20
2008,09,17,08,40,15.20
2008,09,17,08,41,15.30
2008,09,17,08,42,15.30
2008,09,17,08,43,15.30
2008,09,17,08,44,15.30
2008,09,17,08,45,15.40
2008,09,17,08,46,15.40
2008,09,17,08,47,15.40
2008,09,17,08,48,15.40
2008,09,17,08,49,15.40
2008,09,17,08,50,15.50
2008,09,17,08,51,15.50
2008,09,17,08,52,15.60
2008,09,17,08,53,15.60
2008,09,17,08,54,15.70
2008,09,17,08,55,15.80
2008,09,17,08,56,15.80
2008,09,17,08,57,15.80
2008,09,17,08,58,15.90
2008,09,17,08,59,16.00
2008,09,17,09,00,16.10
2008,09,17,09,01,16.10
2008,09,17,09,02,16.10
2008,09,17,09,03,16.10
2008,09,17,09,04,16.10
2008,09,17,09,05,16.10
2008,09,17,09,06,16.10
2008,09,17,09,07,16.10
2008,09,17,09,08,15.90
2008,09,17,09,09,15.90
2008,09,17,09,10,15.80
2008,09,17,09,11,15.80
2008,09,17,09,12,15.80
2008,09,17,09,13,15.80
2008,09,17,09,14,15.80
2008,09,17,09,15,15.80
2008,09,17,09,16,15.80
2008,09,17,09,17,15.80
2008,09,17,09,18,15.80
2008,09,17,09,19,15.80
2008,09,17,09,20,15.80
2008,09,17,09,21,15.80
2008,09,17,09,22,15.80
2008,09,17,09,23,15.80
2008,09,17,09,24,15.80
2008,09,17,09,25,15.80
2008,09,17,09,26,15.80
2008,09,17,09,27,15.80
2008,09,17,09,28,15.80
2008,09,17,09,29,15.80
2008,09,17,09,30,15.80
2008,09,17,09,31,15.80
2008,09,17,09,32,15.80
2008,09,17,09,33,15.80
2008,09,17,09,34,15.80
2008,09,17,09,35,15.80
2008,09,17,09,36,15.80
2008,09,17,09,37,15.90
2008,09,17,09,38,15.90
2008,09,17,09,39,15.90
2008,09,17,09,40,15.90
2008,09,17,09,41,16.00
2008,09,17,09,42,16.10
2008,09,17,09,43,16.10
2008,09,17,09,44,16.10
2008,09,17,09,45,16.10
2008,09,17,09,46,16.10
2008,09,17,09,47,16.10
2008,09,17,09,48,16.10
2008,09,17,09,49,16.10
2008,09,17,09,50,16.10
2008,09,17,09,51,16.10
2008,09,17,09,52,16.10
2008,09,17,09,53,16.10
2008,09,17,09,54,16.10
2008,09,17,09,55,16.10
2008,09,17,09,56,16.20
2008,09,17,09,57,16.30
2008,09,17,09,58,16.30
2008,09,17,09,59,16.40
2008,09,17,10,00,16.40
2008,09,17,10,01,16.40
2008,09,17,10,02,16.60
2008,09,17,10,03,16.80
2008,09,17,10,04,16.90
2008,09,17,10,05,17.00
2008,09,17,10,06,17.00
2008,09,17,10,07,17.10
2008,09,17,10,08,17.20
2008,09,17,10,09,17.20
2008,09,17,10,10,17.20
2008,09,17,10,11,17.20
2008,09,17,10,12,17.20
2008,09,17,10,13,17.20
2008,09,17,10,14,17.30
2008,09,17,10,15,17.30
2008,09,17,10,16,17.30
2008,09,17,10,17,17.30
2008,09,17,10,18,17.30
2008,09,17,10,19,17.30
2008,09,17,10,20,17.30
2008,09,17,10,21,17.40
2008,09,17,10,22,17.40
2008,09,17,10,23,17.50
2008,09,17,10,24,17.60
2008,09,17,10,25,17.70
2008,09,17,10,26,17.70
2008,09,17,10,27,17.80
2008,09,17,10,28,17.80
2008,09,17,10,29,17.90
2008,09,17,10,30,17.90
2008,09,17,10,31,17.90
2008,09,17,10,32,18.00
2008,09,17,10,33,18.10
2008,09,17,10,34,18.10
2008,09,17,10,35,18.20
2008,09,17,10,36,18.20
2008,09,17,10,37,18.20
2008,09,17,10,38,18.30
2008,09,17,10,39,18.30
2008,09,17,10,40,18.30
2008,09,17,10,41,18.30
2008,09,17,10,42,18.40
2008,09,17,10,43,18.40
2008,09,17,10,44,18.40
2008,09,17,10,45,18.50
2008,09,17,10,46,18.50
2008,09,17,10,47,18.50
2008,09,17,10,48,18.50
2008,09,17,10,49,18.50
2008,09,17,10,50,18.60
2008,09,17,10,51,18.60
2008,09,17,10,52,18.60
2008,09,17,10,53,18.70
2008,09,17,10,54,18.80
2008,09,17,10,55,18.90
2008,09,17,10,56,18.90
2008,09,17,10,57,18.90
2008,09,17,10,58,19.00
2008,09,17,10,59,19.10
2008,09,17,11,00,19.10
2008,09,17,11,01,19.20
2008,09,17,11,02,19.30
2008,09,17,11,03,19.40
2008,09,17,11,04,19.40
2008,09,17,11,05,19.40
2008,09,17,11,06,19.50
2008,09,17,11,07,19.40
2008,09,17,11,08,19.50
2008,09,17,11,09,19.50
2008,09,17,11,10,19.60
2008,09,17,11,11,19.70
2008,09,17,11,12,19.80
2008,09,17,11,13,19.80
2008,09,17,11,14,19.80
2008,09,17,11,15,19.80
2008,09,17,11,16,19.80
2008,09,17,11,17,19.90
2008,09,17,11,18,19.90
2008,09,17,11,19,19.90
2008,09,17,11,20,20.00
2008,09,17,11,21,20.00
2008,09,17,11,22,19.90
2008,09,17,11,23,19.80
2008,09,17,11,24,19.70
2008,09,17,11,25,19.70
2008,09,17,11,26,19.70
2008,09,17,11,27,19.70
2008,09,17,11,28,19.70
2008,09,17,11,29,19.80
2008,09,17,11,30,19.80
2008,09,17,11,31,19.80
2008,09,17,11,32,19.70
2008,09,17,11,33,19.60
2008,09,17,11,34,19.60
2008,09,17,11,35,19.50
2008,09,17,11,36,19.50
2008,09,17,11,37,19.50
2008,09,17,11,38,19.60
2008,09,17,11,39,19.60
2008,09,17,11,40,19.60
2008,09,17,11,41,19.60
2008,09,17,11,42,19.60
2008,09,17,11,43,19.60
2008,09,17,11,44,19.60
2008,09,17,11,45,19.70
2008,09,17,11,46,19.80
2008,09,17,11,47,19.80
2008,09,17,11,48,19.90
2008,09,17,11,49,19.90
2008,09,17,11,50,19.90
2008,09,17,11,51,20.10
2008,09,17,11,52,20.20
2008,09,17,11,53,20.20
2008,09,17,11,54,20.20
2008,09,17,11,55,20.20
2008,09,17,11,56,20.20
2008,09,17,11,57,20.20
2008,09,17,11,58,20.20
2008,09,17,11,59,20.20
2008,09,17,12,00,20.30
2008,09,17,12,01,20.30
2008,09,17,12,02,20.30
2008,09,17,12,03,20.30
2008,09,17,12,04,20.30
2008,09,17,12,05,20.30
2008,09,17,12,06,20.20
2008,09,17,12,07,20.20
2008,09,17,12,08,20.20
2008,09,17,12,09,20.10
2008,09,17,12,10,19.90
2008,09,17,12,11,19.70
2008,09,17,12,12,19.60
2008,09,17,12,13,19.50
2008,09,17,12,14,19.50
2008,09,17,12,15,19.40
2008,09,17,12,16,19.40
2008,09,17,12,17,19.30
2008,09,17,12,18,19.20
2008,09,17,12,19,19.10
2008,09,17,12,20,18.90
2008,09,17,12,21,18.80
2008,09,17,12,22,18.80
2008,09,17,12,23,18.80
2008,09,17,12,24,18.80
2008,09,17,12,25,18.80
2008,09,17,12,26,18.90
2008,09,17,12,27,18.90
2008,09,17,12,28,19.00
2008,09,17,12,29,19.10
2008,09,17,12,30,19.20
2008,09,17,12,31,19.40
2008,09,17,12,32,19.40
2008,09,17,12,33,19.50
2008,09,17,12,34,19.60
2008,09,17,12,35,19.60
2008,09,17,12,36,19.60
2008,09,17,12,37,19.70
2008,09,17,12,38,19.80
2008,09,17,12,39,19.90
2008,09,17,12,40,19.90
2008,09,17,12,41,20.10
2008,09,17,12,42,20.10
2008,09,17,12,43,20.20
2008,09,17,12,44,20.20
2008,09,17,12,45,20.20
2008,09,17,12,46,20.20
2008,09,17,12,47,20.20
2008,09,17,12,48,20.20
2008,09,17,12,49,20.20
2008,09,17,12,50,20.20
2008,09,17,12,51,20.20
2008,09,17,12,52,20.20
2008,09,17,12,53,20.20
2008,09,17,12,54,20.20
2008,09,17,12,55,20.10
2008,09,17,12,56,20.00
2008,09,17,12,57,19.90
2008,09,17,12,58,19.90
2008,09,17,12,59,19.90
2008,09,17,13,00,19.90
2008,09,17,13,01,19.80
2008,09,17,13,02,19.80
2008,09,17,13,03,19.70
2008,09,17,13,04,19.70
2008,09,17,13,05,19.70
2008,09,17,13,06,19.70
2008,09,17,13,07,19.60
2008,09,17,13,08,19.50
2008,09,17,13,09,19.40
2008,09,17,13,10,19.40
2008,09,17,13,11,19.30
2008,09,17,13,12,19.30
2008,09,17,13,13,19.40
2008,09,17,13,14,19.30
2008,09,17,13,15,19.30
2008,09,17,13,16,19.30
2008,09,17,13,17,19.20
2008,09,17,13,18,19.20
2008,09,17,13,19,19.20
2008,09,17,13,20,19.20
2008,09,17,13,21,19.20
2008,09,17,13,22,19.20
2008,09,17,13,23,19.20
2008,09,17,13,24,19.20
2008,09,17,13,25,19.20
2008,09,17,13,26,19.20
2008,09,17,13,27,19.20
2008,09,17,13,28,19.20
2008,09,17,13,29,19.20
2008,09,17,13,30,19.20
2008,09,17,13,31,19.30
2008,09,17,13,32,19.30
2008,09,17,13,33,19.30
2008,09,17,13,34,19.40
2008,09,17,13,35,19.40
2008,09,17,13,36,19.50
2008,09,17,13,37,19.60
2008,09,17,13,38,19.70
2008,09,17,13,39,19.70
2008,09,17,13,40,19.80
2008,09,17,13,41,19.80
2008,09,17,13,42,19.80
2008,09,17,13,43,19.80
2008,09,17,13,44,19.80
2008,09,17,13,45,19.80
2008,09,17,13,46,19.70
2008,09,17,13,47,19.60
2008,09,17,13,48,19.60
2008,09,17,13,49,19.70
2008,09,17,13,50,19.70
2008,09,17,13,51,19.70
2008,09,17,13,52,19.80
2008,09,17,13,53,19.90
2008,09,17,13,54,20.00
2008,09,17,13,55,20.10
2008,09,17,13,56,20.20
2008,09,17,13,57,20.30
2008,09,17,13,58,20.30
2008,09,17,13,59,20.30
2008,09,17,14,00,20.30
2008,09,17,14,01,20.30
2008,09,17,14,02,20.30
2008,09,17,14,03,20.30
2008,09,17,14,04,20.40
2008,09,17,14,05,20.40
2008,09,17,14,06,20.40
2008,09,17,14,07,20.40
2008,09,17,14,08,20.40
2008,09,17,14,09,20.40
2008,09,17,14,10,20.40
2008,09,17,14,11,20.30
2008,09,17,14,12,20.40
2008,09,17,14,13,20.40
2008,09,17,14,14,20.30
2008,09,17,14,15,20.30
2008,09,17,14,16,20.30
2008,09,17,14,17,20.30
2008,09,17,14,18,20.30
2008,09,17,14,19,20.40
2008,09,17,14,20,20.40
2008,09,17,14,21,20.50
2008,09,17,14,22,20.60
2008,09,17,14,23,20.60
2008,09,17,14,24,20.60
2008,09,17,14,25,20.60
2008,09,17,14,26,20.50
2008,09,17,14,27,20.50
2008,09,17,14,28,20.50
2008,09,17,14,29,20.50
2008,09,17,14,30,20.40
2008,09,17,14,31,20.20
2008,09,17,14,32,20.20
2008,09,17,14,33,20.20
2008,09,17,14,34,20.00
2008,09,17,14,35,19.90
2008,09,17,14,36,19.70
2008,09,17,14,37,19.60
2008,09,17,14,38,19.60
2008,09,17,14,39,19.60
2008,09,17,14,40,19.50
2008,09,17,14,41,19.50
2008,09,17,14,42,19.50
2008,09,17,14,43,19.60
2008,09,17,14,44,19.70
2008,09,17,14,45,19.70
2008,09,17,14,46,19.80
2008,09,17,14,47,19.80
2008,09,17,14,48,19.90
2008,09,17,14,49,20.10
2008,09,17,14,50,20.20
2008,09,17,14,51,20.20
2008,09,17,14,52,20.20
2008,09,17,14,53,20.20
2008,09,17,14,54,20.20
2008,09,17,14,55,20.20
2008,09,17,14,56,20.20
2008,09,17,14,57,20.30
2008,09,17,14,58,20.30
2008,09,17,14,59,20.40
2008,09,17,15,00,20.40
2008,09,17,15,01,20.40
2008,09,17,15,02,20.40
2008,09,17,15,03,20.40
2008,09,17,15,04,20.50
2008,09,17,15,05,20.50
2008,09,17,15,06,20.60
2008,09,17,15,07,20.60
2008,09,17,15,08,20.70
2008,09,17,15,09,20.70
2008,09,17,15,10,20.70
2008,09,17,15,11,20.70
2008,09,17,15,12,20.60
2008,09,17,15,13,20.60
2008,09,17,15,14,20.60
2008,09,17,15,15,20.60
2008,09,17,15,16,20.70
2008,09,17,15,17,20.70
2008,09,17,15,18,20.70
2008,09,17,15,19,20.80
2008,09,17,15,20,20.80
2008,09,17,15,21,20.90
2008,09,17,15,22,21.00
2008,09,17,15,23,21.00
2008,09,17,15,24,21.10
2008,09,17,15,25,21.20
2008,09,17,15,26,21.20
2008,09,17,15,27,21.30
2008,09,17,15,28,21.20
2008,09,17,15,29,21.20
2008,09,17,15,30,21.20
2008,09,17,15,31,21.10
2008,09,17,15,32,21.00
2008,09,17,15,33,21.10
2008,09,17,15,34,21.10
2008,09,17,15,35,21.20
2008,09,17,15,36,21.10
2008,09,17,15,37,21.10
2008,09,17,15,38,21.10
2008,09,17,15,39,21.10
2008,09,17,15,40,21.10
2008,09,17,15,41,21.20
2008,09,17,15,42,21.20
2008,09,17,15,43,21.30
2008,09,17,15,44,21.20
2008,09,17,15,45,21.20
2008,09,17,15,46,21.20
2008,09,17,15,47,21.30
2008,09,17,15,48,21.30
2008,09,17,15,49,21.30
2008,09,17,15,50,21.40
2008,09,17,15,51,21.50
2008,09,17,15,52,21.60
2008,09,17,15,53,21.50
2008,09,17,15,54,21.40
2008,09,17,15,55,21.40
2008,09,17,15,56,21.50
2008,09,17,15,57,21.60
2008,09,17,15,58,21.60
2008,09,17,15,59,21.60
2008,09,17,16,00,21.60
2008,09,17,16,01,21.60
2008,09,17,16,02,21.70
2008,09,17,16,03,21.80
2008,09,17,16,04,21.90
2008,09,17,16,05,21.90
2008,09,17,16,06,21.90
2008,09,17,16,07,22.00
2008,09,17,16,08,22.00
2008,09,17,16,09,22.10
2008,09,17,16,10,22.10
2008,09,17,16,11,22.10
2008,09,17,16,12,22.10
2008,09,17,16,13,22.00
2008,09,17,16,14,22.00
2008,09,17,16,15,21.90
2008,09,17,16,16,21.90
2008,09,17,16,17,21.90
2008,09,17,16,18,21.90
2008,09,17,16,19,21.90
2008,09,17,16,20,21.90
2008,09,17,16,21,21.80
2008,09,17,16,22,21.80
2008,09,17,16,23,21.80
2008,09,17,16,24,21.80
2008,09,17,16,25,21.80
2008,09,17,16,26,21.70
2008,09,17,16,27,21.70
2008,09,17,16,28,21.70
2008,09,17,16,29,21.70
2008,09,17,16,30,21.70
2008,09,17,16,31,21.70
2008,09,17,16,32,21.70
2008,09,17,16,33,21.70
2008,09,17,16,34,21.80
2008,09,17,16,35,21.80
2008,09,17,16,36,21.80
2008,09,17,16,37,21.80
2008,09,17,16,38,21.90
2008,09,17,16,39,21.80
2008,09,17,16,40,21.80
2008,09,17,16,41,21.80
2008,09,17,16,42,21.80
2008,09,17,16,43,21.80
2008,09,17,16,44,21.70
2008,09,17,16,45,21.70
2008,09,17,16,46,21.80
2008,09,17,16,47,21.80
2008,09,17,16,48,21.90
2008,09,17,16,49,21.90
2008,09,17,16,50,22.00
2008,09,17,16,51,22.00
2008,09,17,16,52,21.90
2008,09,17,16,53,21.80
2008,09,17,16,54,21.80
2008,09,17,16,55,21.80
2008,09,17,16,56,21.80
2008,09,17,16,57,21.80
2008,09,17,16,58,21.80
2008,09,17,16,59,21.70
2008,09,17,17,00,21.70
2008,09,17,17,01,21.60
2008,09,17,17,02,21.60
2008,09,17,17,03,21.60
2008,09,17,17,04,21.60
2008,09,17,17,05,21.60
2008,09,17,17,06,21.60
2008,09,17,17,07,21.70
2008,09,17,17,08,21.70
2008,09,17,17,09,21.70
2008,09,17,17,10,21.70
2008,09,17,17,11,21.70
2008,09,17,17,12,21.70
2008,09,17,17,13,21.70
2008,09,17,17,14,21.60
2008,09,17,17,15,21.60
2008,09,17,17,16,21.60
2008,09,17,17,17,21.60
2008,09,17,17,18,21.60
2008,09,17,17,19,21.60